User: anonymous
Location: Columbia
(38.9520°N, 92.3340°W)
Time: 13:16:52
(UTC-05:00)
Language:

Iridium 52 - Orbit

View from above orbital plane
View from above orbital plane
View from above satellite
View from above satellite

Ground track
Ground track

The orbit data is extracted from the following two-line orbital elements,

1 25169U 98010A   14273.43077766  .00000548  00000-0  18863-3 0  7060
2 25169 086.3980 044.4854 0002215 111.7363 307.7039 14.34216425869778
Epoch (UTC): 30 September 2014 10:20:19
Eccentricity: 0.0002215
inclination: 86.3980°
perigee height: 776 km
apogee height: 779 km
right ascension of ascending node: 44.4854°
argument of perigee: 111.7363°
revolutions per day: 14.34216425
mean anomaly at epoch: 307.7039°
orbit number at epoch: 86977

The dashed part of the orbit path shows where the satellite is in the earth's shadow,  

DLR